Location: Dover
(39.1580°N, 75.5250°W)
Time: 04:06:58
(UTC-04:00)

Daily predictions for brighter satellites

Satellite Brightness Start Highest point End
(mag) Time Altitude Azimuth Time Altitude Azimuth Time Altitude Azimuth
Cosmos 2278 Rocket 3.5 00:15:06 10° NNW 00:18:23 36° NNW 00:18:23 36° NNW
NOSS 3-4 (A) 4.4 00:34:17 44° N 00:34:17 44° N 00:38:49 10° NNE
NOSS 3-4 (C) 4.4 00:34:24 44° N 00:34:24 44° N 00:38:55 10° NNE
Mayak 1.9 00:32:38 10° NNE 00:32:42 10° NNE 00:32:42 10° NNE
SL-16 R/B 4.1 00:49:23 24° NE 00:49:23 24° NE 00:51:36 10° NNE
Cosmos 2219 Rocket 3.9 00:47:14 28° NW 00:47:14 28° NW 00:51:00 10° N
CENTAUR R/B 3.4 00:44:12 10° NNW 00:52:00 58° NE 00:52:00 58° NE
USA 215 3.8 00:55:12 53° N 00:55:12 53° N 01:00:33 10° NW
Cosmos 2333 Rocket 3.9 00:57:37 28° NNW 00:57:37 28° NNW 01:01:13 10° N
CZ-2C R/B 4.4 00:54:06 10° N 00:56:58 28° NNW 00:56:58 28° NNW
ATLAS CENTAUR R/B 4.2 01:11:50 10° NW 01:18:48 35° N 01:18:48 35° N
Cosmos 2237 Rocket 4.0 01:26:42 24° NNW 01:26:42 24° NNW 01:30:04 10° N
Cosmos 2369 Rocket 4.1 01:26:53 10° N 01:31:20 23° NE 01:31:20 23° NE
COSMOS 2455 4.2 01:32:07 10° NNW 01:35:15 33° NNW 01:35:15 33° NNW
SL-16 R/B 4.2 02:31:15 19° NW 02:31:15 19° NW 02:34:39 10° N
Cosmos 1727 Rocket 4.4 02:30:03 10° N 02:34:47 56° N 02:34:47 56° N
CENTAUR R/B 4.3 02:35:23 10° NW 02:39:08 26° WNW 02:39:08 26° WNW
ARIANE 5 R/B 4.2 02:38:25 10° NE 02:42:27 27° E 02:42:27 27° E
NPP 4.4 02:40:09 10° NNE 02:44:12 51° NE 02:44:12 51° NE
IRS-1D 4.3 02:58:14 10° NNE 03:02:41 47° E 03:02:41 47° E
Spot 4 Rocket 4.5 03:06:05 10° NNE 03:10:41 57° ENE 03:10:41 57° ENE
Cosmos 2098 Rocket 4.2 03:10:47 56° ESE 03:11:27 59° E 03:16:52 10° NNE
Cosmos 1943 Rocket 2.4 03:06:01 10° NNW 03:10:34 61° N 03:10:34 61° N
SL-16 R/B 2.5 03:12:49 67° SE 03:13:36 78° ENE 03:19:50 10° N
Cosmos 2221 4.0 03:14:25 33° ENE 03:14:25 33° ENE 03:17:50 10° NNE
ADEOS Rocket 3.2 03:09:47 10° N 03:14:17 49° NW 03:14:17 49° NW
Cosmos 2369 Rocket 3.5 03:10:10 10° NNW 03:13:03 29° NW 03:13:03 29° NW
Cosmos 1943 4.1 03:25:19 37° NW 03:25:19 37° NW 03:30:07 10° N
Resurs 1-4 Rocket 2.0 03:23:13 10° NNE 03:28:16 82° NNE 03:28:16 82° NNE
Cosmos 2123 Rocket 4.3 03:22:28 10° N 03:28:43 64° E 03:31:00 39° SSE
Cosmos 1821 Rocket 3.8 03:29:19 74° WSW 03:29:40 76° W 03:35:56 10° N
CZ-2D R/B 2.0 03:26:35 10° NNE 03:31:55 85° NW 03:31:55 85° NW
Cosmos 1763 Rocket 4.4 03:33:54 37° NW 03:33:54 37° NW 03:37:49 10° N
Cosmos 836 Rocket 4.4 03:35:13 85° E 03:35:13 85° E 03:40:33 10° NNE
Cosmos 1400 Rocket 4.1 03:31:57 10° N 03:35:36 35° ENE 03:35:48 35° E
Cosmos 2058 4.3 03:32:04 10° N 03:34:18 31° NNW 03:34:18 31° NNW
UNKNOWN OBJECT B 3.7 03:36:58 10° NNE 03:40:38 48° E 03:40:38 48° E
MOZ.5/SAFIR/RUBIN 5/SL-8 4.2 03:40:23 50° ESE 03:41:15 59° ENE 03:45:51 10° N
Cosmos 540 Rocket 3.3 03:42:52 88° SSW 03:42:56 90° WNW 03:48:05 10° NNE
Cosmos 304 Rocket 4.2 03:43:45 51° NW 03:43:45 51° NW 03:47:50 10° N
Cosmos 1125 Rocket 3.6 03:41:51 10° NNW 03:47:05 74° ENE 03:49:06 38° SSE
Cosmos 1934 Rocket 3.8 03:47:32 63° SW 03:48:19 71° W 03:54:23 10° N
Cosmos 1605 Rocket 3.9 03:56:13 45° S 03:58:22 86° W 04:04:49 10° N
Cosmos 1626 4.5 03:55:22 10° NNW 03:56:11 15° NNW 03:56:11 15° NNW
CZ-2D R/B 3.3 03:56:44 10° NNE 04:00:46 76° ESE 04:00:46 76° ESE
BREEZE-M DEB (TANK) 4.1 04:03:05 16° ESE 04:03:05 16° ESE 04:03:45 10° ESE
MOS 1 Rocket 3.6 04:03:33 10° N 04:07:21 43° WNW 04:07:21 43° WNW
BREEZE-M DEB (TANK) 4.5 04:05:24 30° W 04:08:29 52° SW 04:28:38 10° SE
COSMOS 2406 3.1 04:08:44 46° SSW 04:10:31 89° ESE 04:16:14 10° NNE
Cosmos 1726 2.3 04:10:27 59° SE 04:10:46 63° E 04:14:27 10° NNE
Cosmos 1633 Rocket 3.9 04:08:29 10° N 04:12:44 48° E 04:16:42 11° SSE
USA 229 DEB 3.9 04:09:25 10° NNW 04:16:39 81° ENE 04:23:59 10° SE
USA 229 3.9 04:09:32 10° NNW 04:16:45 81° NE 04:24:05 10° SE
Cosmos 1153 Rocket 4.5 04:14:33 28° S 04:18:10 89° WNW 04:24:32 10° N
ERBS 3.7 04:16:59 10° NNW 04:20:16 40° NE 04:23:31 10° ESE
ARIANE 5 R/B 3.3 04:17:17 10° N 04:21:58 34° WNW 04:22:47 33° W
ADEOS II 2.9 04:17:54 10° NNE 04:23:01 49° E 04:27:31 13° S
Cosmos 1908 4.4 04:27:34 28° WNW 04:27:34 28° WNW 04:30:22 10° NNW
USA 161 3.1 04:32:43 21° N 04:32:43 21° N 04:33:36 10° N
OPS 8737 4.4 04:32:08 57° SW 04:32:48 85° WNW 04:36:10 10° NNE
Cosmos 2100 Rocket 4.2 04:27:20 13° S 04:33:09 75° E 04:39:32 10° N
Cosmos 1328 Rocket 3.8 04:32:28 20° S 04:35:19 66° E 04:39:38 10° NNE
Cosmos 1315 Rocket 2.7 04:32:29 10° NNW 04:36:33 80° W 04:39:05 21° S
Cosmos 2285 Rocket 4.1 04:34:58 29° SW 04:38:16 63° WNW 04:44:38 10° NNE
Cosmos 1447 Rocket 4.4 04:33:07 10° NNW 04:39:13 65° W 04:45:16 10° S
Cosmos 1300 2.6 04:41:31 37° SSW 04:42:53 69° W 04:46:42 10° N
Cosmos 1666 Rocket 3.6 04:39:29 10° NNW 04:43:51 58° W 04:46:41 21° SSW
SL-27 R/B 2.2 04:43:41 47° SW 04:44:28 68° WNW 04:47:51 10° NNE
Cosmos 1805 Rocket 4.2 04:42:04 10° NNW 04:46:05 34° W 04:47:01 31° WSW
PSLV R/B 4.2 04:43:16 10° NNE 04:47:34 56° E 04:51:47 10° S
Cosmos 2221 4.1 04:51:18 18° WNW 04:51:33 18° WNW 04:54:34 10° NNW
CZ-4B R/B 3.4 04:47:38 10° NNE 04:52:04 71° ESE 04:56:35 10° S
Meteor 2-10 4.2 04:47:36 15° SSW 04:52:27 79° W 04:58:10 10° N
Okean O Rocket 2.2 04:48:16 10° NNE 04:52:39 58° E 04:56:58 10° S
NOSS 3-1 (C) 4.4 04:45:03 10° NNW 04:52:42 72° NE 05:01:08 10° SE
Cosmos 1933 Rocket 4.2 04:48:18 10° N 04:52:43 59° E 04:57:06 10° SSE
USA 234 4.0 04:47:15 10° ENE 04:53:30 46° SE 04:59:33 11° SSW
BREEZE-M DEB (TANK) 4.2 04:50:50 10° WNW 04:54:48 25° N 04:56:40 10° ENE
Lacrosse 5 4.2 04:50:45 10° NNW 04:54:55 25° NNE 04:59:04 10° E
SL-16 R/B 4.1 04:57:55 15° W 04:57:55 15° W 05:01:14 10° WNW
PSLV R/B 3.9 04:55:14 10° N 04:59:23 82° WNW 05:02:55 14° SSW
Cosmos 1455 3.8 04:56:48 10° SSE 05:00:14 34° E 05:03:40 10° NNE
MOS 1-B 4.4 04:56:50 10° N 05:02:36 63° WNW 05:07:46 13° SSW
Meteor 2-3 Rocket 4.4 04:57:16 10° N 05:02:50 59° ENE 05:08:25 10° SSE
PSLV R/B 3.5 05:00:56 22° WNW 05:02:50 59° N 05:06:04 10° E
Cosmos 2173 Rocket 4.0 04:56:46 10° SSW 05:03:00 70° W 05:09:21 10° N
Tiangong 2 3.5 05:02:50 11° S 05:04:36 16° SE 05:06:42 10° ESE
Cosmos 773 Rocket 4.0 05:01:41 13° SSW 05:06:28 85° WNW 05:11:48 10° NNE
Resurs 1-4 Rocket 4.1 05:05:52 10° NW 05:07:32 11° WNW 05:09:12 10° WNW
Cosmos 2082 Rocket 3.3 05:03:41 10° S 05:08:56 43° ESE 05:14:14 10° NE
CZ-2D R/B 4.2 05:09:39 10° NW 05:11:11 11° WNW 05:12:44 10° WNW
Abrixas 4.3 05:11:57 10° NW 05:14:14 25° NNE 05:16:31 10° E
Meteor 1-31 Rocket 4.1 05:12:22 10° NNE 05:16:07 42° E 05:19:51 10° S
Cosmos 1151 Rocket 2.9 05:12:10 10° SSW 05:16:28 74° W 05:20:46 10° N
CZ-3A R/B 4.3 05:13:50 10° WNW 05:17:53 19° WSW 05:21:56 10° SSW
PAYLOAD B 4.2 05:17:52 10° N 05:23:29 76° WNW 05:29:03 10° SSW
Sich 1 4.4 05:21:35 10° NW 05:24:46 20° W 05:27:17 13° SW
CZ-4B R/B 3.2 05:19:22 10° NNE 05:24:54 84° WNW 05:30:17 10° SSW
Meteor 1-27 4.2 05:20:18 10° SSW 05:26:00 77° W 05:31:39 10° N
Cosmos 2228 Rocket 3.7 05:22:47 11° SW 05:26:46 37° WNW 05:30:55 10° N
Cosmos 1459 Rocket 4.4 05:22:46 10° SSW 05:28:31 42° WNW 05:34:16 10° N
CZ-2C R/B 3.8 05:28:53 10° SSE 05:33:17 80° ENE 05:37:45 10° N
Cosmos 2369 3.8 05:28:56 10° NNW 05:34:37 87° ENE 05:40:16 10° SSE
Hubble Space Telescope 2.8 05:32:36 10° SSW 05:35:06 16° S 05:37:37 10° SE
IRS-1C Rocket 4.1 05:30:08 10° N 05:35:23 71° WNW 05:40:36 10° SSW
Cosmos 1470 Rocket 4.1 05:32:03 10° NNW 05:36:00 36° W 05:39:57 10° SSW
Meteor PRIRODA 3.6 05:36:12 10° N 05:39:52 75° WNW 05:43:30 10° SSW
Cosmos 1892 2.8 05:36:14 10° NNW 05:39:57 51° W 05:43:41 10° S
Landsat 4 3.9 05:36:26 10° S 05:40:03 49° W 05:43:42 10° NNW
Shenzhou-11 Module 2.6 05:46:09 10° SW 05:49:09 50° SSE 05:52:10 10° ENE
